Regional Weather Roundup
Issued by NWS

Home | Current Version | Previous Version | Graphics & Text | Print | Product List | Glossary On
Versions: 1 2 3 4 5 6 7 8 9 10 11 12 13 14 15 16 17 18 19 20 21 22 23 24 25 26 27
000
ASUS45 KSLC 271810
RWRUT

UTAH REGIONAL WEATHER ROUNDUP
NATIONAL WEATHER SERVICE SALT LAKE CITY UT
1200 PM MDT SAT AUG 27 2016

UTZ001>011-023>025-271900-

NORTHERN UTAH

CITY           SKY/WX    TMP DP  RH WIND       PRES   REMARKS
BRIGHAM CITY     N/A     78  36  22 SW12G17   30.09S
HILL AFB       SUNNY     77  41  27 S10       30.10F
LOGAN          SUNNY     74  38  27 VRB3      30.09S
OGDEN          SUNNY     79  40  24 S10       30.08F
PROVO AIRPORT  MOSUNNY   75  39  27 VRB5      30.11F
SALT LAKE CITY MOSUNNY   81  39  22 S14       30.06F
VERNAL         SUNNY     65  48  54 CALM      30.19F
WENDOVER       SUNNY     73  34  23 E9        30.08S
HEBER CITY     SUNNY     73  36  25 E3        30.13F
WEST JORDAN    SUNNY     77  42  27 S16       30.10S

$$

UTZ012>022-026-027-271900-

SOUTHERN/CENTRAL UTAH

CITY           SKY/WX    TMP DP  RH WIND       PRES   REMARKS
BLANDING       CLOUDY    69  46  43 S5        30.30S
BRYCE CANYON   CLOUDY    51  44  77 CALM      30.34R
CEDAR CITY     CLOUDY    65  50  58 VRB5      30.20S
MILFORD        PTSUNNY   68  48  48 S16       30.16F
MOAB/CYNLANDS  MOSUNNY   73  44  35 S9        30.14R
PRICE          SUNNY     70  43  37 MISG      30.21F
ST GEORGE      CLEAR     73  54  49 E5        30.14S

$$

REGIONAL REPORTS     COLORADO/ARIZONA

CITY           SKY/WX    TMP DP  RH WIND       PRES   REMARKS
CRAIG, CO      SUNNY     71  40  32 N3        30.22F
GRAND JUNCTION SUNNY     72  44  36 MISG      30.17F
RIFLE          SUNNY     64  50  60 CALM      30.22F
MONTROSE       MOSUNNY   70  46  42 N5        30.23F
CORTEZ         CLOUDY    69  49  48 W3        30.22S
PAGE, AZ       CLOUDY    65  53  65 N9        30.19S
GRAND CANYON   CLOUDY    58  50  75 S12       30.28R
KINGMAN        CLOUDY    70  55  59 NW5       30.12R
FLAGSTAFF      CLOUDY    52  50  93 S8        30.33R

$$

REGIONAL REPORTS    NEVADA/IDAHO/WYOMING

CITY           SKY/WX    TMP DP  RH WIND       PRES   REMARKS
LAS VEGAS, NV  PTSUNNY   79  50  36 E13       30.03R
ELY            SUNNY     74  35  24 CALM      30.19F
ELKO           SUNNY     76  22  13 VRB3      30.11F
POCATELLO, ID  SUNNY     77  31  18 SW9       30.06S
BURLEY         SUNNY     75  39  27 SW7       30.02S
EVANSTON, WY   SUNNY     71  28  20 SW17G23   30.23S
ROCK SPRINGS   SUNNY     69  28  21 W12G18    30.21F

$$




USA.gov is the U.S. government's official web portal to all federal, state and local government web resources and services.